Simultaneous Nadir Overpasses (SNOs) Predictions

Prediction of SNOs between AURA and NPP Satellite Orbit:

Table of predicted SNOs for the next 14.0 days since TLE Epoch: 3/8/2025
Index Date (AURA) Time (AURA) Lat,Lon (AURA) SZA (AURA ) Date (NPP) Time (NPP) Lat,Lon (NPP) SZA (NPP ) Distance(km) Time Diff (sec)
1 03/10/2025 03:22:57 81.02, 46.44 93.27 03/10/2025 03:22:05 81.02, 46.52 93.29 1.47 52
2 03/10/2025 04:12:17 -81.04,-145.50 86.81 03/10/2025 04:12:48 -81.04,-145.52 86.83 0.33 31
3 03/12/2025 14:35:35 81.02,-121.72 92.28 03/12/2025 14:34:28 81.01,-121.81 92.34 1.66 67
4 03/12/2025 15:24:55 -81.04, 46.35 87.80 03/12/2025 15:25:10 -81.05, 46.53 87.83 3.16 15
5 03/15/2025 02:37:31 -81.05,-121.57 88.82 03/15/2025 02:37:32 -81.05,-121.48 88.83 1.59 1
6 03/17/2025 13:50:06 -81.03, 69.99 89.77 03/17/2025 13:49:54 -81.04, 70.07 89.77 1.46 12
7 03/17/2025 14:39:24 81.08,-121.69 90.13 03/17/2025 14:40:36 81.08,-121.51 90.06 3.02 72
8 03/20/2025 01:02:39 -81.05, -97.86 90.80 03/20/2025 01:02:15 -81.05, -97.70 90.81 2.86 24



Historial Predications of SNOs between AURA and NPP
